[[{"header":{"parameterUnit":"m.s-1","parameterCategory":1,"la1":30.2992,"la2":30.254,"lo1":-89.0895,"lo2":-89.0443,"dy":0.0025,"dx":0.0025,"nx":19,"ny":19,"refTime":"2026-03-10T09:00:00:Z","depth":0,"parameterNumber":2,"parameterNumberName":"U-component_of_WINDS"},"data":[0,0,0,-0.8242,-0.8242,-0.8283,-0.8283,-0.8333,-0.8333,0,0,0,0,0,0,0,0,0,0,0,-0.8228,-0.8228,-0.8241,-0.8242,-0.8283,-0.8283,-0.8333,-0.8333,0,0,0,0,0,0,0,0,0,0,0,-0.8228,-0.8228,-0.8229,-0.8243,-0.8283,-0.8283,-0.8333,-0.8303,0,0,0,0,0,0,0,0,0,0,-0.8264,-0.825,-0.8228,-0.8229,-0.8243,-0.8283,-0.8283,-0.8301,-0.8305,-0.8313,0,-0.8321,0,-0.8328,-0.8336,-0.8337,0,0,0,-0.8244,-0.8247,-0.8259,-0.8229,-0.8243,-0.8283,-0.8265,-0.8303,-0.8307,-0.8318,-0.8321,-0.8323,-0.8328,-0.8337,-0.8337,-0.8382,-0.8382,0,0,-0.8241,-0.8235,-0.8257,-0.8262,-0.8255,-0.8264,-0.8266,-0.8306,-0.8309,-0.8321,-0.8324,-0.8329,-0.8337,-0.8337,-0.8382,-0.8382,0,0,0,-0.8234,-0.8233,-0.8244,-0.826,-0.8267,-0.8265,-0.8268,-0.8307,-0.8312,-0.8325,-0.833,-0.8337,-0.8338,-0.8382,-0.8382,-0.8383,0,0,0,-0.8233,-0.8229,-0.8243,-0.824,-0.8266,-0.8288,-0.8269,-0.8309,-0.8314,-0.833,-0.8337,-0.8338,-0.8382,-0.8382,-0.8383,-0.8385,0,0,0,-0.8226,-0.8228,-0.8233,-0.8239,-0.8256,-0.8287,-0.8294,-0.831,-0.8317,-0.8337,-0.8338,-0.8382,-0.8382,-0.8382,-0.8384,-0.8395,0,0,0,-0.8217,-0.8234,-0.8233,-0.8255,-0.8256,-0.8288,-0.8294,-0.8318,-0.8335,-0.8338,-0.8382,-0.8382,-0.8382,-0.8384,-0.8394,-0.8402,-0.8404,0,0,-0.8235,-0.8236,-0.8249,-0.825,-0.828,-0.8282,-0.8312,-0.8335,-0.8343,-0.8369,-0.837,-0.8383,-0.8384,-0.8394,-0.8422,-0.8424,0,0,0,-0.8253,-0.8262,-0.8271,-0.8287,-0.8305,-0.8319,-0.8338,-0.8346,-0.8368,-0.8355,-0.839,-0.8391,-0.8397,-0.8401,-0.8403,-0.8408,-0.8384,-0.8384,-0.8384,-0.8269,-0.8278,-0.83,-0.8314,-0.8329,-0.8348,-0.8361,-0.8375,-0.8381,-0.8389,-0.8396,-0.8412,-0.8416,-0.8417,-0.8423,-0.8401,-0.8401,-0.8401,-0.8401,-0.8296,-0.8311,-0.8317,-0.834,-0.835,-0.8369,-0.8388,-0.8391,-0.841,-0.8407,-0.8413,-0.8408,-0.8419,-0.8425,-0.8401,-0.8401,-0.8401,-0.8401,-0.8401,-0.8308,-0.8316,-0.8326,-0.8349,-0.8367,-0.838,-0.8399,-0.8407,-0.8415,-0.842,-0.8429,-0.8429,-0.843,-0.8424,-0.8424,-0.8424,-0.8424,-0.8424,-0.8424,-0.8316,-0.8327,-0.8341,-0.8361,-0.8372,-0.8387,-0.8405,-0.8416,-0.8431,-0.8435,-0.8435,-0.844,-0.8419,-0.8413,-0.8425,-0.8425,-0.8425,-0.8425,-0.8425,-0.8341,-0.8337,-0.8359,-0.837,-0.8393,-0.8409,-0.8419,-0.844,-0.8451,-0.846,-0.8462,-0.8446,-0.8448,-0.8446,-0.8442,-0.846,-0.846,-0.846,-0.846,-0.8351,-0.8352,-0.8377,-0.8394,-0.8411,-0.8422,-0.8447,-0.8461,-0.8475,-0.8482,-0.848,-0.8475,-0.8473,-0.8476,-0.8474,-0.847,-0.8496,-0.8496,-0.8496,-0.8367,-0.837,-0.839,-0.8403,-0.8421,-0.8436,-0.846,-0.8479,-0.8494,-0.8497,-0.8487,-0.8486,-0.8477,-0.8474,-0.8478,-0.8474,-0.8467,0,0]},{"header":{"parameterUnit":"m.s-1","parameterCategory":1,"la1":30.2992,"la2":30.254,"lo1":-89.0895,"lo2":-89.0443,"dy":0.0025,"dx":0.0025,"nx":19,"ny":19,"refTime":"2026-03-10T09:00:00:Z","depth":0,"parameterNumber":3,"parameterNumberName":"V-component_of_WINDS"},"data":[0,0,0,4.3809,4.3814,4.4077,4.4078,4.4397,4.44,0,0,0,0,0,0,0,0,0,0,0,4.3719,4.372,4.3809,4.3815,4.4076,4.4078,4.4397,4.44,0,0,0,0,0,0,0,0,0,0,0,4.3718,4.372,4.3722,4.3816,4.4076,4.4078,4.4396,4.4205,0,0,0,0,0,0,0,0,0,0,4.3953,4.3857,4.372,4.3722,4.3817,4.4076,4.4078,4.4196,4.4217,4.4271,0,4.4312,0,4.4361,4.442,4.4421,0,0,0,4.3825,4.3839,4.3921,4.3722,4.382,4.4076,4.3961,4.4208,4.4231,4.4298,4.4317,4.433,4.4366,4.4422,4.4423,4.4694,4.4694,0,0,4.3811,4.376,4.3904,4.3935,4.389,4.3953,4.3969,4.4222,4.4241,4.4318,4.4337,4.4371,4.4424,4.4426,4.4693,4.4694,0,0,0,4.3762,4.3749,4.3825,4.3922,4.397,4.396,4.3979,4.423,4.4259,4.4341,4.4375,4.4426,4.4429,4.4692,4.4693,4.4682,0,0,0,4.3754,4.3721,4.3819,4.379,4.3965,4.4102,4.398,4.4241,4.4271,4.4374,4.4426,4.4432,4.4691,4.4693,4.468,4.4686,0,0,0,4.3706,4.3716,4.3749,4.3787,4.3897,4.4099,4.4143,4.4249,4.4292,4.4421,4.4433,4.4691,4.4693,4.4679,4.4684,4.4743,0,0,0,4.3641,4.3735,4.3747,4.3866,4.3894,4.4089,4.4142,4.429,4.44,4.4427,4.4692,4.4693,4.4679,4.4682,4.4741,4.4784,4.4796,0,0,4.3731,4.3744,4.3818,4.3837,4.4016,4.4053,4.4232,4.4382,4.4443,4.4607,4.4615,4.4681,4.4683,4.4742,4.4882,4.4891,0,0,0,4.383,4.3882,4.3941,4.4041,4.4157,4.4257,4.4385,4.4441,4.4583,4.4515,4.4719,4.4722,4.4759,4.4782,4.479,4.4826,4.4701,4.4701,4.4701,4.3885,4.3956,4.4084,4.4186,4.4283,4.4414,4.4501,4.46,4.4643,4.469,4.474,4.4816,4.4841,4.4847,4.4884,4.4767,4.4767,4.4767,4.4767,4.4026,4.4112,4.4167,4.4311,4.4386,4.4509,4.464,4.4667,4.4795,4.4784,4.482,4.4803,4.4855,4.4891,4.4767,4.4767,4.4767,4.4767,4.4767,4.4071,4.4125,4.419,4.4344,4.4455,4.4557,4.4676,4.4741,4.4803,4.4838,4.49,4.49,4.491,4.4862,4.4863,4.4863,4.4863,4.4863,4.4864,4.4093,4.4167,4.4258,4.4388,4.4462,4.4568,4.4701,4.4777,4.4878,4.4917,4.4917,4.4958,4.4846,4.4817,4.4868,4.4867,4.4867,4.4866,4.4866,4.4212,4.4195,4.4336,4.441,4.457,4.4677,4.4758,4.4907,4.4979,4.5037,4.507,4.4976,4.4995,4.4989,4.4966,4.5052,4.5052,4.5052,4.5052,4.4252,4.4266,4.4426,4.454,4.466,4.4747,4.4908,4.5013,4.512,4.517,4.5166,4.5141,4.5132,4.5156,4.5147,4.5127,4.5252,4.5252,4.5253,4.433,4.4359,4.4482,4.4583,4.4713,4.4825,4.4979,4.5111,4.5229,4.5262,4.5211,4.5203,4.5162,4.5145,4.5178,4.5161,4.5125,0,0]}]]